Theta_e
330 329 328 329 329 328 329 331 331 333 333 330 326 331 336 338 340 340 340 341 340 337 336 336 335 332 331 330 330 330 332 332 330 330 330 329 328 328 328 328 327 327 327 327 327 327 327 327 328 328 329 329 329 329 328 328 328 329 329 329 330 329 329 330 329 329 328 327 328 328 329 329 329 328 327 327 327 328 328 328 328 328 329 328 329
330 330 328 328 329 327 328 330 331 332 332 329 326 330 336 338 340 340 340 339 337 335 334 334 332 329 329 330 330 330 331 331 329 329 329 327 327 327 326 327 326 325 324 325 327 327 326 326 327 328 328 328 328 328 328 327 328 330 329 328 329 328 328 329 330 329 327 325 325 327 329 329 329 329 328 328 327 327 326 326 327 326 326 326 326
331 331 329 328 328 328 329 329 331 331 331 330 329 332 336 337 339 339 339 338 336 334 333 331 329 328 328 329 329 329 330 330 328 328 327 326 325 325 325 325 324 323 323 323 325 325 324 325 327 327 327 327 326 327 328 328 328 330 329 328 328 327 328 328 328 329 328 325 324 326 328 329 329 328 328 329 328 327 326 325 325 325 325 325 325
333 331 330 329 329 329 329 330 330 331 330 330 330 333 335 337 337 338 338 336 334 333 332 330 329 329 329 330 329 329 330 329 327 326 324 323 322 322 323 324 323 322 322 322 324 323 323 325 326 325 325 325 325 327 328 328 328 328 328 328 328 328 328 327 327 328 327 326 325 325 324 326 331 328 327 329 329 328 327 326 325 324 324 324 324
333 332 330 328 328 328 329 330 330 330 330 330 331 332 334 335 336 336 335 333 332 331 330 330 330 330 330 329 328 328 327 326 324 323 321 321 320 320 321 322 322 321 321 322 323 322 323 325 325 324 323 324 324 326 327 328 328 328 328 328 328 328 327 327 327 328 328 326 325 325 324 327 331 328 325 327 328 329 328 327 327 326 326 325 324
330 331 330 328 328 328 329 330 330 329 329 330 331 333 334 334 334 333 332 331 330 330 330 330 329 328 327 326 326 325 324 323 323 322 321 320 320 320 321 321 321 321 321 322 321 321 322 324 324 323 323 323 323 324 325 326 327 327 327 328 328 328 327 327 327 327 328 327 325 326 327 328 328 326 326 326 326 327 328 327 327 328 328 327 327
330 330 329 329 328 328 328 329 330 330 329 330 331 333 333 334 333 332 331 331 330 330 330 329 328 326 326 325 325 324 324 323 322 322 321 320 320 320 320 320 320 320 320 320 320 319 319 320 323 324 323 322 321 322 324 325 326 327 327 327 327 327 327 326 326 326 327 328 327 327 327 327 327 326 326 327 328 327 326 325 326 327 328 328 329
331 330 330 329 328 328 328 329 329 329 330 330 332 332 332 333 333 331 331 330 330 330 328 327 326 325 325 324 324 324 323 323 321 321 320 320 320 319 319 318 318 317 317 317 316 316 316 318 321 323 322 320 320 320 322 323 324 326 325 325 325 325 326 327 326 326 327 327 327 326 325 325 326 326 326 327 329 329 325 323 321 321 322 323 326
330 330 330 329 328 328 329 329 330 330 331 331 331 332 332 332 332 331 330 330 330 329 326 326 325 324 324 324 323 323 322 321 321 320 320 320 320 319 319 318 317 316 315 314 314 314 313 314 318 320 319 318 317 318 319 321 323 324 323 322 322 321 323 325 326 326 326 326 326 324 322 322 323 324 322 321 324 327 326 321 317 316 316 318 321
330 330 330 328 328 329 329 329 330 330 331 331 331 331 330 330 330 330 329 329 328 328 326 325 325 324 323 323 323 322 321 320 321 320 320 320 320 319 318 318 318 316 314 313 313 311 309 311 314 315 314 314 315 316 317 319 321 322 321 319 318 318 318 320 322 324 325 325 324 322 319 319 319 318 317 318 318 319 320 318 314 314 315 315 315
329 329 329 328 328 329 330 330 330 330 331 331 331 331 330 329 328 328 328 327 328 326 324 324 324 323 323 323 323 321 320 320 320 321 320 320 319 318 316 316 316 315 314 313 312 310 309 309 310 311 311 312 313 315 316 318 319 319 318 317 317 317 317 317 319 322 322 321 320 318 317 316 315 314 314 316 316 316 318 317 313 313 313 311 310
329 330 329 329 329 329 330 330 328 328 328 328 330 330 330 328 327 327 327 326 327 325 324 323 322 323 323 323 323 322 320 318 319 321 320 320 319 317 315 314 314 314 314 314 313 313 311 310 311 312 312 311 312 313 314 316 316 316 315 315 315 316 315 316 317 317 318 317 316 316 315 314 314 313 313 313 313 314 317 315 312 312 312 311 310
329 329 330 330 329 328 328 328 325 326 326 326 328 328 328 328 327 327 327 326 326 325 324 323 322 323 323 323 323 321 320 317 317 320 321 320 319 316 313 314 314 314 315 315 314 314 313 313 313 313 312 310 308 309 312 315 316 315 314 314 315 315 315 314 315 314 315 315 315 314 314 313 312 311 311 311 311 311 311 312 311 311 311 311 311
329 328 328 326 324 323 324 325 325 326 326 326 327 327 327 328 328 326 325 325 326 325 325 324 324 323 323 323 323 321 320 317 316 319 320 320 318 315 313 313 314 314 315 315 315 315 314 315 314 314 313 312 309 308 309 312 314 315 315 314 314 314 313 313 313 313 313 314 314 313 312 312 310 310 310 309 309 308 309 310 310 310 310 310 310
326 324 322 321 321 321 322 323 323 325 326 325 325 326 327 328 326 324 324 325 326 325 325 325 325 325 323 323 323 322 321 318 316 318 320 319 317 315 313 312 313 314 314 315 315 315 314 315 315 314 314 313 312 310 307 307 308 311 313 313 314 313 312 312 311 311 312 312 312 311 311 310 310 309 309 308 308 307 307 308 308 310 310 309 309
325 326 324 321 320 321 322 322 322 325 326 325 324 324 325 325 324 324 325 326 326 325 325 325 325 325 324 322 322 321 321 318 317 318 319 318 317 316 314 312 312 313 313 314 314 315 314 314 314 314 314 313 314 313 310 307 305 306 308 310 312 313 312 311 309 308 308 308 308 309 309 309 308 308 307 307 307 307 306 306 306 309 309 310 311
324 327 328 325 321 320 321 323 323 324 325 324 324 323 324 323 324 325 325 325 326 325 326 326 325 323 322 322 321 321 321 318 316 318 319 317 316 316 314 313 312 312 312 313 313 313 313 313 312 313 314 314 314 314 313 311 309 307 306 307 310 312 312 311 309 306 306 306 306 307 308 308 307 307 306 306 306 306 305 305 305 305 306 312 316
325 324 323 324 321 319 321 324 325 325 324 324 324 323 323 323 325 325 323 323 325 326 326 325 323 321 321 322 321 321 320 318 316 318 317 315 315 315 314 312 313 312 311 311 311 311 311 311 310 311 312 312 314 315 314 313 312 311 309 308 309 310 310 311 310 308 306 305 306 306 307 307 307 306 306 306 306 306 305 305 304 303 303 307 311
331 326 322 322 321 319 321 323 323 323 322 323 323 322 322 322 324 324 323 323 325 325 325 323 321 321 322 322 321 321 319 317 317 318 317 314 313 314 312 311 312 311 310 309 309 310 310 309 310 309 309 310 311 313 314 314 313 313 312 311 311 310 309 309 309 309 308 306 306 307 306 307 307 306 306 306 306 306 305 304 302 302 302 302 304
329 325 322 321 320 320 321 321 321 320 320 322 322 322 322 321 323 324 322 323 324 324 323 321 321 321 321 321 320 320 318 318 318 319 317 315 313 312 312 311 311 311 310 309 309 310 310 310 311 312 311 310 309 311 313 313 313 313 313 313 312 312 310 309 309 309 309 307 306 306 307 307 307 307 307 307 306 306 305 303 302 301 302 301 301
326 325 324 322 319 320 322 322 321 321 321 322 323 322 322 321 322 322 320 321 323 323 323 322 322 321 321 320 319 319 319 318 319 319 317 316 315 314 313 314 314 314 313 312 312 312 312 313 313 314 315 313 311 311 311 312 313 313 313 313 313 313 312 311 311 310 310 308 307 308 307 307 307 307 307 307 306 306 306 304 303 302 302 302 302
325 325 326 322 318 319 322 322 323 322 323 323 322 322 322 321 322 321 319 320 322 323 323 323 322 322 321 320 320 320 320 319 320 319 318 317 317 316 316 316 317 317 317 316 315 315 314 315 315 315 316 316 315 314 312 312 313 313 313 313 313 313 313 313 312 312 311 309 308 309 309 308 306 305 306 307 306 306 306 304 303 303 303 303 303
323 324 323 319 317 319 321 322 322 322 322 322 322 321 322 322 322 322 322 322 322 321 322 322 322 322 322 321 320 321 320 320 320 320 319 318 318 318 316 317 318 318 318 317 317 317 317 316 316 316 316 316 316 316 315 314 314 313 313 313 314 314 313 313 313 313 313 311 310 309 310 309 308 307 307 307 306 306 305 305 304 303 304 304 305
322 323 320 316 317 319 319 320 321 322 322 322 322 321 321 321 321 322 322 322 321 321 321 321 322 322 321 320 320 321 320 320 320 320 319 318 318 317 316 317 318 318 318 318 318 318 317 317 317 317 317 317 317 317 317 317 316 315 314 314 314 314 313 314 314 313 313 313 312 311 311 310 309 309 308 307 307 307 306 305 305 304 304 304 304
323 323 322 321 320 317 317 319 320 321 322 321 321 320 320 320 321 322 322 321 321 321 321 322 322 322 322 321 321 321 321 320 320 320 318 318 318 318 317 318 318 318 318 318 319 319 318 318 318 318 318 318 318 317 317 318 318 317 317 316 315 314 314 314 314 314 314 313 313 313 312 312 310 310 309 308 308 307 307 307 305 304 304 304 303
324 324 324 325 322 317 316 319 321 321 321 320 320 319 319 320 320 321 321 321 321 321 322 322 321 322 321 321 321 320 320 320 319 319 318 318 318 318 318 319 318 318 319 318 319 319 318 318 318 317 318 318 318 318 318 318 318 318 317 317 317 315 315 315 315 314 314 313 313 314 313 313 312 311 310 309 309 308 308 307 306 305 305 304 303
322 322 322 323 323 318 314 318 321 320 320 321 320 320 321 320 320 321 321 321 321 321 322 322 321 320 320 321 320 320 320 319 319 318 318 318 319 319 319 319 319 318 318 318 318 318 318 318 318 318 318 318 318 317 317 317 318 318 317 317 318 316 316 316 317 316 315 314 314 314 313 313 313 313 311 310 309 309 308 308 307 305 305 304 304
318 319 320 321 322 319 314 316 320 321 321 321 321 321 322 321 321 321 321 321 321 321 321 321 320 320 320 320 320 320 319 319 318 318 318 318 319 318 318 318 319 319 319 319 319 319 319 319 318 318 318 318 318 317 317 318 318 318 318 318 318 317 316 317 318 318 317 316 316 315 314 314 313 313 313 312 310 310 309 308 307 306 305 305 304
317 317 317 317 319 316 312 313 317 320 320 318 318 320 321 322 322 321 321 321 322 321 322 322 321 320 320 320 320 320 319 319 319 319 319 318 318 318 318 318 318 319 319 319 319 318 318 318 318 318 318 318 317 318 318 318 319 318 318 318 318 318 318 318 318 319 318 317 316 316 315 314 314 314 313 313 312 310 309 309 307 306 306 306 305
315 315 314 314 314 310 309 311 312 313 314 312 311 315 319 322 322 322 322 321 321 321 321 320 320 320 319 319 319 320 320 319 319 318 318 319 319 319 319 318 318 319 319 318 318 318 319 319 319 319 318 318 319 319 319 319 319 319 319 318 318 318 319 319 318 318 318 318 316 316 315 315 314 314 313 313 312 310 309 308 307 306 306 305 304
315 314 313 313 311 306 305 308 308 307 308 307 306 310 315 320 321 320 320 320 320 321 320 320 320 320 319 319 319 319 319 318 318 317 317 317 317 318 319 319 319 319 319 319 318 318 318 319 320 319 319 320 320 320 320 320 320 320 320 319 319 319 320 319 319 318 318 317 316 316 315 314 314 313 312 312 311 309 308 307 306 305 305 304 303
313 312 311 312 311 305 302 303 305 305 305 305 305 306 309 312 313 313 313 314 316 317 316 315 315 315 317 318 318 318 317 317 316 315 314 314 315 316 316 317 317 316 315 315 315 315 316 317 318 319 319 320 321 321 321 321 321 321 320 320 319 320 319 319 319 319 318 318 317 316 316 316 315 314 312 311 309 308 307 306 305 305 304 303 302
310 310 309 308 307 304 302 303 304 304 304 304 304 304 305 306 307 307 307 309 310 310 309 309 309 309 311 312 313 314 314 313 312 310 310 311 311 312 312 312 312 312 311 312 312 313 313 314 314 315 317 319 320 321 321 321 321 320 319 319 319 319 319 319 319 318 318 318 318 317 317 317 315 314 312 310 309 307 306 305 304 303 303 302 302
307 308 306 304 303 303 304 305 305 305 304 304 304 304 304 305 305 306 307 307 307 307 307 307 307 307 308 308 309 310 309 309 309 308 308 309 309 309 310 310 310 310 310 310 310 310 310 311 311 311 312 315 318 320 321 321 320 319 318 318 317 317 318 318 318 318 318 317 317 316 315 314 313 312 310 308 307 306 305 304 303 303 302 302 301
309 308 305 303 303 304 305 305 305 305 306 305 305 305 304 305 305 305 306 306 306 306 307 307 306 306 307 307 308 308 308 308 308 308 308 308 309 309 309 309 309 309 309 309 309 309 309 309 309 309 308 309 312 316 319 320 319 318 317 316 316 316 317 317 317 316 316 316 315 313 312 310 310 308 307 305 305 304 303 303 303 302 302 301 300
307 307 305 305 306 305 305 305 306 306 306 306 306 305 305 305 305 305 305 305 306 306 306 306 307 307 307 307 307 307 308 308 308 308 309 308 309 309 309 309 309 309 309 310 309 309 309 309 309 308 308 308 309 312 316 318 318 316 316 315 314 315 315 315 315 314 313 312 311 310 309 308 307 305 304 303 304 304 303 303 303 302 301 300 299
300 303 305 306 307 307 305 305 306 306 306 307 306 306 306 305 305 305 305 305 305 305 305 305 306 307 306 307 307 307 307 308 308 308 309 309 309 309 309 309 309 309 309 309 309 309 309 309 309 308 309 309 310 312 314 316 315 314 314 314 313 314 314 313 312 310 309 308 307 307 307 306 304 303 303 303 303 303 303 303 302 301 300 299 298
297 299 301 302 304 305 305 306 306 306 306 306 306 306 306 306 306 306 305 306 305 304 305 305 305 306 306 306 306 307 307 307 308 308 308 309 309 309 309 309 309 309 309 309 309 309 309 309 308 308 308 308 310 312 313 314 313 313 313 313 313 313 312 311 309 307 305 305 304 304 304 304 304 303 303 303 303 303 303 302 302 301 299 297 296
297 298 298 299 299 301 302 303 303 303 303 303 303 304 304 305 306 306 305 306 305 304 304 304 304 305 305 305 305 306 306 306 306 307 307 308 309 309 309 309 309 309 309 309 308 308 308 308 308 307 308 309 310 312 312 312 311 311 311 311 311 311 310 308 307 305 304 303 302 302 302 303 303 303 303 303 302 302 301 300 299 298 297 295 294
297 298 298 298 298 299 299 299 300 299 300 300 300 301 302 304 305 305 306 306 305 305 305 305 304 304 304 305 305 305 305 306 305 306 307 308 309 309 308 308 308 307 307 307 307 307 306 307 307 308 309 309 310 310 311 311 310 310 310 309 309 309 309 307 306 305 304 303 302 302 301 301 301 301 301 300 300 300 299 298 296 295 294 293 293
297 298 298 298 298 298 298 298 298 299 299 299 299 299 301 302 302 303 304 304 304 305 305 305 305 305 305 306 306 305 306 306 305 306 306 307 307 307 307 307 307 306 306 306 306 306 306 307 307 308 309 309 309 309 309 309 309 309 308 308 307 308 308 307 305 304 304 303 302 301 301 300 300 299 299 298 297 297 296 295 294 294 293 292 292
298 298 298 299 298 298 299 299 298 299 299 299 299 299 299 300 299 300 301 302 303 303 304 305 305 305 305 306 305 306 306 305 305 306 306 306 306 307 306 306 306 306 306 305 306 306 306 307 307 308 308 308 308 307 307 307 306 306 306 306 305 305 305 305 304 303 302 301 300 300 299 299 298 297 297 296 296 295 294 293 293 292 292 292 291
298 298 298 298 299 298 299 299 298 299 299 299 299 299 299 299 300 299 300 300 301 302 302 304 304 304 305 305 305 306 305 305 306 305 305 306 306 306 306 306 306 306 306 305 306 306 307 307 307 307 307 307 307 306 305 304 304 303 303 303 303 304 304 303 303 301 300 299 298 297 297 297 296 296 295 295 294 293 293 293 292 292 291 291 291
297 297 298 298 298 298 298 298 298 298 299 299 299 299 299 299 300 300 300 299 300 301 302 302 302 303 305 305 305 305 305 305 305 305 305 306 306 305 306 306 305 305 305 305 306 306 307 307 307 307 306 306 306 305 303 303 302 302 302 302 302 303 302 302 301 300 299 298 297 296 296 295 295 294 294 293 293 293 292 292 292 291 291 290 290
297 297 298 298 298 298 298 298 298 298 298 299 299 299 299 299 300 300 300 300 300 301 301 302 302 302 303 304 305 305 305 305 305 305 305 305 305 305 305 305 305 305 304 305 306 306 306 306 306 306 306 305 305 304 302 302 301 301 301 301 301 301 300 299 299 298 298 297 296 296 295 294 293 293 293 292 292 292 291 291 291 290 290 289 289
297 297 297 298 298 298 298 298 298 298 298 299 299 298 299 299 299 300 300 301 300 301 301 302 302 302 302 304 304 305 304 305 305 305 305 305 305 305 305 305 305 304 305 305 306 306 306 305 305 305 304 303 303 302 302 300 300 299 300 300 299 298 298 297 296 296 296 296 295 294 294 293 292 292 292 291 291 291 290 290 290 289 289 288 288
296 296 296 297 297 297 297 298 298 298 298 298 298 298 298 299 299 299 299 300 300 301 301 302 302 303 303 304 304 304 304 304 305 305 305 305 305 305 305 305 304 304 305 305 305 305 305 305 305 304 303 302 301 300 299 299 298 297 298 298 297 296 296 295 295 295 295 294 293 293 292 292 292 291 291 291 290 290 289 289 288 288 288 288 288
295 295 295 295 295 296 296 297 297 298 298 298 298 298 298 298 299 299 299 299 299 300 301 301 302 302 303 304 304 304 304 304 305 305 305 305 305 305 305 305 305 305 304 304 305 305 304 304 305 304 302 300 299 298 298 298 298 297 297 297 296 295 295 295 294 294 293 293 292 292 292 291 291 291 290 290 289 289 288 288 288 288 287 287 287
292 292 292 292 292 293 294 295 296 296 297 297 298 298 298 299 298 298 298 299 299 299 300 300 300 301 302 302 303 303 304 304 304 304 304 304 305 304 305 305 304 304 304 304 304 304 304 305 305 304 303 301 299 299 299 298 297 297 297 296 296 295 294 294 293 293 292 292 292 292 291 291 291 290 290 289 288 288 288 288 287 287 287 287 287
290 290 290 290 290 291 291 292 293 294 295 295 296 297 298 298 298 298 298 298 299 299 299 300 300 300 300 301 301 301 302 302 303 303 303 304 304 304 304 304 304 304 304 304 304 304 304 304 304 304 303 302 301 301 300 297 295 295 295 295 295 294 293 293 292 292 292 292 292 291 291 290 290 289 289 288 288 288 287 287 287 287 287 287 287
289 289 288 288 289 288 289 289 290 292 293 294 294 295 296 297 297 297 297 297 298 299 300 300 300 300 300 300 300 300 301 301 302 302 303 303 303 303 303 304 304 304 304 304 304 305 304 304 304 304 303 302 302 302 300 297 295 294 294 295 295 293 292 292 292 292 292 292 291 291 290 290 289 289 288 288 287 287 287 287 287 287 287 287 287
Wind_Speed
8 13 16 20 20 17 18 21 24 25 23 22 23 24 23 20 19 18 18 18 18 16 14 14 14 14 13 10 9 9 11 11 11 10 9 8 7 6 6 7 7 6 5 4 4 4 3 3 2 2 1 2 3 5 3 1 1 2 3 2 3 5 7 6 5 6 6 4 2 1 2 4 5 6 4 4 5 6 6 5 5 5 6 7 9
8 11 14 19 20 17 18 19 22 24 24 24 26 25 21 19 19 20 20 19 17 15 16 16 15 15 14 13 11 10 11 11 11 10 9 8 6 5 5 5 5 5 5 4 5 5 4 4 3 2 2 2 3 4 3 2 3 3 2 2 3 4 6 6 6 5 5 6 4 0 1 1 2 4 6 6 6 7 7 7 6 5 4 4 5
8 10 12 18 20 18 19 20 21 22 21 19 20 20 20 20 21 20 20 19 16 15 15 15 15 14 13 14 13 12 11 11 10 10 9 8 7 6 5 5 5 4 4 4 6 6 5 4 4 3 2 1 2 3 3 2 4 4 3 3 3 2 2 4 5 5 3 5 7 2 1 1 1 1 3 6 7 7 8 8 8 7 6 5 5
9 10 10 15 18 18 19 21 20 17 16 16 16 17 18 20 20 19 19 17 15 14 14 14 15 14 12 13 14 13 12 11 11 10 10 9 7 6 5 6 5 4 4 4 6 5 4 5 5 4 3 2 0 2 2 2 3 4 3 2 3 2 2 3 3 3 2 3 4 2 1 1 1 1 1 2 4 6 7 8 9 9 8 7 6
9 11 9 11 14 17 20 21 19 16 15 15 15 16 16 17 18 18 18 16 14 13 13 15 16 15 14 14 14 14 14 13 12 11 10 8 7 6 5 6 5 4 4 5 5 4 4 5 5 4 3 3 2 2 2 1 1 2 2 2 3 3 3 3 2 1 2 4 4 2 2 0 2 2 2 1 2 3 5 5 6 6 5 5 4
8 8 8 9 12 15 18 18 16 15 15 14 14 16 16 16 17 18 18 16 13 13 14 16 17 17 16 17 17 17 16 14 12 11 10 8 7 7 7 6 4 4 5 5 5 4 4 4 4 3 3 3 3 3 3 3 3 1 2 2 1 1 2 2 2 1 2 4 5 6 3 1 3 3 1 0 1 1 2 3 2 1 1 1 1
7 7 7 9 11 13 14 16 17 15 14 13 15 16 17 17 18 20 19 16 14 15 15 16 17 17 16 16 17 17 16 14 11 10 9 9 9 9 8 7 6 5 6 6 5 5 4 3 3 3 2 2 2 2 3 4 5 4 4 3 3 1 2 3 4 2 1 3 5 4 3 3 6 5 2 2 1 2 3 3 4 2 1 1 1
7 8 9 9 12 14 15 16 17 14 13 15 17 18 19 20 21 21 19 17 17 17 17 17 16 16 15 15 15 15 14 13 12 10 10 10 11 10 9 8 8 7 6 6 6 6 5 4 4 4 4 3 1 2 3 4 4 4 5 5 4 3 1 3 5 4 4 3 2 1 2 4 6 5 5 4 3 2 2 5 9 10 8 6 3
9 10 10 11 14 16 16 16 16 16 18 18 18 19 19 21 22 22 20 20 19 18 17 17 15 14 15 15 15 14 13 13 13 12 12 12 11 10 9 8 7 7 7 7 7 6 5 4 5 5 4 2 2 2 3 3 3 4 5 5 5 6 5 3 4 4 4 5 4 3 4 5 5 5 5 5 5 3 1 2 7 11 13 13 11
9 10 10 12 15 16 15 16 17 19 21 18 15 13 14 17 20 21 20 20 20 19 18 17 16 15 16 16 16 15 13 13 14 13 13 12 11 9 8 7 7 7 8 9 8 7 5 4 4 4 3 2 3 3 4 4 4 4 5 6 6 6 6 5 5 6 5 5 6 6 6 6 6 7 8 9 8 7 4 2 5 9 11 16 20
9 8 9 10 12 12 12 15 18 18 18 16 14 11 11 14 16 18 19 20 21 20 19 18 17 17 17 16 15 15 15 15 15 15 14 12 11 10 9 8 8 9 10 9 8 8 7 7 6 6 5 5 5 5 5 5 5 5 5 5 5 6 6 7 8 9 9 9 9 8 8 9 9 8 8 8 7 6 5 3 6 11 12 16 22
8 8 7 7 7 8 11 12 7 6 10 13 13 11 9 10 12 15 18 20 21 20 19 18 19 18 17 16 16 15 15 16 17 17 15 13 12 11 11 11 11 12 11 9 8 8 8 9 9 9 9 8 7 6 5 5 5 5 5 6 6 7 7 8 10 10 9 10 11 11 11 12 12 11 10 9 8 7 7 5 5 9 10 11 15
7 5 3 3 4 3 5 8 10 7 13 18 11 5 4 3 9 15 18 18 18 18 17 17 18 18 18 18 17 17 16 16 17 17 16 14 13 13 13 13 13 13 11 9 8 7 7 8 9 9 9 9 9 8 7 6 5 6 7 8 9 9 9 8 10 10 10 10 11 12 12 13 14 13 11 11 10 9 9 7 5 7 7 7 9
2 5 7 7 9 10 11 13 11 9 17 20 10 5 3 4 9 11 10 11 13 15 17 17 17 18 18 19 18 17 16 15 16 17 16 14 13 12 12 13 13 12 10 9 7 6 6 7 7 8 8 9 9 9 8 6 6 6 7 9 9 9 8 8 9 10 10 10 10 11 12 13 14 13 13 13 13 12 10 7 7 8 8 8 8
7 8 9 9 12 15 18 16 7 9 14 16 8 8 11 10 5 2 3 9 15 18 19 19 18 18 19 20 19 18 16 15 15 15 14 14 13 11 11 11 11 10 9 8 7 6 5 5 5 5 6 7 8 8 8 6 6 6 7 8 9 8 8 9 10 10 10 9 9 10 12 13 13 12 13 14 14 15 13 9 9 7 6 5 6
6 7 9 10 12 13 14 16 13 14 19 17 9 10 14 10 10 4 6 16 19 19 19 18 18 20 20 21 20 19 17 15 15 15 13 13 12 10 9 10 10 10 9 8 6 5 3 3 2 2 3 4 4 5 7 6 6 6 7 8 8 8 8 9 10 10 10 10 9 10 12 13 13 12 13 13 14 15 16 14 10 8 6 4 2
5 4 6 7 10 13 12 14 16 17 21 20 15 14 11 12 12 10 16 25 27 22 21 20 20 20 21 20 19 19 17 15 15 14 13 12 11 9 9 9 9 9 8 8 7 5 4 2 1 0 0 1 2 2 4 5 5 6 6 7 8 7 7 9 9 10 11 10 11 12 12 13 12 12 13 13 13 14 15 17 16 11 8 5 2
6 5 4 4 7 14 15 15 17 22 24 21 19 15 11 13 17 20 26 34 34 28 24 23 21 19 19 18 19 19 17 16 15 14 13 13 12 10 9 9 8 8 7 7 7 7 5 3 1 2 3 2 2 1 1 3 4 4 5 6 6 6 6 7 8 9 10 10 11 12 12 12 11 12 14 14 13 14 14 16 17 16 14 10 5
4 3 2 3 7 11 15 18 17 19 20 18 16 14 14 16 20 26 31 32 29 26 23 21 19 18 18 18 19 19 18 16 15 15 14 13 12 10 9 9 8 7 7 7 7 7 6 4 3 2 3 4 4 3 2 2 2 2 3 3 4 4 4 6 6 7 8 9 10 10 10 10 9 10 11 12 11 12 13 14 15 15 16 15 11
6 4 2 2 7 8 11 15 15 13 14 15 14 14 18 22 24 29 31 29 26 23 21 19 18 17 17 17 18 19 19 18 17 16 15 14 12 10 9 9 8 7 7 6 6 6 5 4 3 3 3 4 5 5 5 4 3 3 2 1 1 2 3 3 4 5 6 6 8 8 8 8 7 7 8 8 9 9 10 12 13 14 16 15 14
4 5 4 4 8 9 8 9 11 10 11 14 14 16 21 27 29 29 29 31 31 25 21 19 18 17 16 16 17 19 21 20 19 18 17 16 14 11 10 9 9 9 8 7 7 7 6 5 5 4 4 5 6 7 7 7 6 5 4 3 2 1 1 1 2 3 4 4 5 6 6 6 5 4 5 5 6 6 7 9 10 11 14 13 13
4 3 3 5 9 10 9 8 9 10 11 13 13 16 20 24 28 29 28 29 28 25 22 21 19 15 13 13 15 19 21 20 19 18 17 17 16 14 12 11 10 9 8 8 8 8 8 8 8 8 7 7 7 8 9 10 9 8 8 7 6 5 4 4 3 2 3 4 4 4 4 5 4 3 3 3 4 4 4 5 7 7 10 12 12
2 3 4 6 8 11 11 10 9 8 9 9 10 13 16 18 22 24 24 24 22 20 20 19 17 13 12 12 13 16 20 20 19 18 17 17 17 16 14 13 13 12 10 10 9 9 10 11 11 11 11 10 10 11 11 12 12 12 11 10 9 9 8 8 7 6 5 5 5 4 4 4 4 3 3 3 3 3 2 3 5 5 7 9 11
4 5 5 6 6 7 10 11 10 10 8 7 8 10 13 14 16 17 18 18 17 16 16 15 13 12 12 12 11 13 16 18 19 19 17 17 18 17 16 16 16 14 11 9 10 10 10 11 14 14 14 13 13 14 14 14 14 15 14 14 14 13 12 11 10 9 8 7 7 7 6 6 5 5 4 3 3 3 1 2 3 4 5 7 9
5 4 4 5 5 5 7 11 11 11 9 8 8 9 11 13 15 16 16 15 14 12 13 13 13 12 12 12 12 13 15 17 19 19 18 17 17 17 16 16 15 13 11 10 12 14 14 13 14 15 16 17 17 18 17 17 17 18 17 17 18 18 16 14 13 12 12 11 10 9 9 8 8 8 7 6 5 4 3 1 2 3 4 6 8
5 4 4 4 4 5 7 10 11 11 10 9 10 10 11 12 13 14 16 16 14 12 12 13 14 13 12 12 12 14 15 18 19 18 17 17 16 15 15 14 13 12 12 12 13 14 15 14 14 14 16 18 19 20 20 20 20 21 20 20 21 22 21 17 15 15 14 14 13 12 11 11 11 11 10 9 8 6 5 3 1 1 2 4 6
3 3 3 3 4 4 6 9 11 11 11 12 11 10 11 11 11 12 14 15 13 12 12 13 14 14 13 12 12 13 15 17 16 16 16 14 11 11 11 11 11 11 11 11 11 11 11 11 12 13 15 17 18 19 19 20 20 20 21 20 21 24 24 21 18 17 16 16 16 15 14 14 14 14 13 12 11 9 7 5 4 2 1 2 5
3 2 1 2 2 2 3 7 10 11 12 13 12 10 10 10 10 11 12 13 13 12 12 12 13 14 14 14 14 14 15 15 15 14 12 10 7 7 8 8 8 9 9 9 9 9 10 11 12 13 15 16 17 18 18 19 18 17 18 19 19 22 23 20 18 19 19 19 18 17 17 17 17 16 14 13 13 12 9 7 6 4 3 1 3
2 1 1 3 3 3 2 3 6 8 10 12 14 13 10 9 9 10 11 11 12 11 11 11 12 13 14 14 14 14 14 14 13 10 8 7 7 9 10 10 9 9 10 9 10 11 12 14 15 15 16 17 18 19 19 19 18 17 18 18 18 18 19 17 18 19 20 20 20 19 19 19 19 18 16 15 15 15 12 10 8 6 5 4 4
2 2 3 3 4 5 5 5 4 4 5 7 10 11 12 10 8 9 9 9 9 9 9 10 10 11 12 12 11 12 12 11 10 8 5 4 6 8 9 9 9 9 9 8 9 10 11 12 13 13 13 14 15 15 16 16 17 17 17 18 17 17 17 17 17 18 19 19 19 19 19 20 19 19 19 19 17 16 13 9 7 6 5 4 4
5 5 5 5 6 7 7 7 8 8 7 7 7 8 11 11 9 8 8 8 8 9 9 9 9 9 9 9 9 10 11 10 9 7 5 4 4 4 4 4 5 4 4 4 4 5 7 8 10 10 10 10 10 10 9 10 11 12 14 16 16 15 15 15 16 16 16 16 16 16 17 18 19 19 21 21 17 15 13 9 7 6 5 4 4
6 6 6 6 6 6 8 10 11 10 9 8 7 8 11 11 11 11 10 10 10 12 12 11 11 10 9 9 10 10 10 10 8 7 6 5 5 5 6 6 5 4 3 2 1 1 3 4 5 6 7 8 9 8 6 5 6 7 8 10 11 12 12 13 14 14 14 14 14 13 14 15 16 18 20 19 16 15 13 11 9 7 5 4 3
7 7 7 7 7 9 12 14 14 14 12 11 8 8 9 10 11 12 12 13 13 14 14 14 13 12 11 10 10 11 11 12 11 11 10 10 9 9 9 9 8 7 6 5 4 3 3 4 4 5 5 5 5 5 3 3 4 5 4 4 6 7 9 10 11 12 12 13 13 13 13 14 15 15 16 16 17 17 15 12 9 6 4 3 3
8 7 7 8 9 11 15 18 18 17 16 14 12 11 10 9 10 10 10 10 10 10 10 11 11 12 12 12 12 13 14 14 13 13 12 12 12 11 11 10 8 7 5 4 3 3 4 5 6 7 8 7 6 5 3 2 4 4 3 3 4 6 8 9 10 10 11 11 11 11 11 11 11 11 13 17 19 17 14 11 7 4 2 3 4
7 7 8 10 12 13 16 18 18 18 18 17 17 16 14 13 13 12 11 11 11 10 10 9 9 9 9 9 9 10 11 11 11 10 11 11 11 10 9 8 6 5 4 2 1 2 4 5 7 8 8 8 8 6 5 3 3 3 3 3 4 6 8 9 9 9 9 9 8 7 7 7 8 10 14 18 16 13 10 7 4 3 3 4 4
5 5 6 9 10 10 12 14 13 14 17 16 15 14 14 15 14 15 15 15 14 14 13 11 11 10 9 8 8 8 9 9 9 9 10 11 11 10 9 8 7 6 5 4 3 2 3 4 5 5 6 6 7 7 6 4 3 3 3 3 4 5 6 7 7 6 6 5 4 3 4 7 10 14 15 12 10 8 6 4 3 3 3 4 5
10 10 9 8 7 6 7 8 7 8 9 10 10 8 9 10 10 12 14 14 13 13 12 11 10 10 10 9 9 9 9 9 10 10 11 11 10 10 9 9 8 7 6 5 4 3 4 4 4 4 4 5 5 6 5 4 3 3 2 3 4 5 4 4 3 3 2 2 2 3 6 10 13 14 11 8 6 5 4 3 3 3 4 5 6
17 17 16 15 12 8 6 6 4 3 3 5 6 4 2 2 3 5 6 6 6 9 11 10 9 8 8 8 7 7 7 8 8 9 9 9 9 8 8 8 7 6 5 5 4 4 4 3 3 3 3 4 4 4 4 3 2 2 2 2 3 3 2 2 1 1 3 5 7 7 8 9 10 9 7 6 5 4 4 4 4 5 5 5 5
18 19 18 18 16 13 11 10 9 9 10 10 9 7 8 7 4 2 2 3 1 2 4 5 5 5 4 4 2 2 3 4 4 5 6 6 7 7 7 6 6 5 5 5 4 3 2 2 2 3 3 3 2 3 3 3 2 2 2 3 3 4 4 4 5 5 6 7 8 8 7 6 6 6 5 5 4 4 4 4 5 5 5 5 5
15 16 16 16 16 15 14 14 14 13 13 13 11 10 12 13 13 11 11 10 8 7 8 9 8 7 8 8 7 5 3 2 1 2 4 5 5 6 5 5 5 5 4 4 3 2 3 3 3 3 3 2 2 1 2 2 2 2 3 4 5 5 4 5 7 7 8 8 8 7 6 5 5 4 4 4 4 4 4 3 4 4 4 4 5
12 13 14 13 13 14 13 13 14 13 13 12 11 10 10 12 14 15 16 15 14 13 14 16 15 12 11 10 9 7 7 6 5 3 4 4 4 4 3 3 3 3 3 3 3 3 3 4 3 3 3 3 2 1 1 2 3 3 4 6 8 6 4 5 7 8 8 8 8 7 6 5 4 3 3 2 1 2 2 3 3 4 4 4 5
12 12 14 14 13 13 12 11 11 11 11 11 11 10 10 10 11 12 13 14 14 15 15 15 15 14 14 12 11 10 9 8 7 6 5 5 5 4 3 2 1 1 1 2 3 3 3 3 3 3 3 3 3 2 2 2 3 4 5 6 7 6 4 4 6 7 8 8 8 8 7 5 4 3 2 1 1 2 2 2 3 3 3 4 6
11 12 13 13 13 13 13 13 12 11 11 12 12 12 12 13 13 12 12 12 13 14 14 14 14 15 15 15 14 13 12 11 10 9 8 8 7 6 5 4 3 3 2 2 3 4 4 4 4 3 4 4 4 3 3 3 4 5 6 6 5 5 4 4 5 7 8 9 9 8 7 5 4 3 2 2 1 1 2 2 2 3 3 5 7
10 10 11 11 12 13 14 14 14 13 12 12 12 12 12 12 13 13 13 13 13 14 15 16 16 16 16 16 16 15 15 14 13 12 11 10 9 8 8 7 6 5 5 5 6 6 7 6 6 6 6 6 6 6 6 6 5 6 6 6 6 5 5 6 7 8 9 9 9 7 5 4 3 2 2 2 1 1 1 1 1 3 5 6 8
7 8 9 9 10 11 12 13 13 13 12 12 12 12 13 12 12 12 14 14 14 15 16 17 18 17 18 18 18 18 17 16 15 14 14 13 12 11 11 10 9 8 8 8 9 9 9 9 8 8 8 8 8 8 8 8 8 8 8 7 6 6 6 7 8 8 9 9 8 6 4 4 4 4 4 4 3 3 2 1 2 4 7 9 10
8 8 9 9 10 10 11 12 13 12 12 12 12 12 14 14 13 13 13 14 14 15 16 18 19 19 19 19 20 19 18 16 16 15 15 14 13 13 13 12 12 12 12 12 12 12 12 11 11 11 11 11 11 11 11 11 10 10 9 7 6 5 6 6 6 8 9 8 7 5 5 6 6 6 5 4 3 2 1 3 5 6 8 9 11
9 9 10 11 11 11 12 12 13 13 12 13 13 14 14 15 16 15 15 15 15 14 14 15 16 17 18 20 20 19 18 18 17 16 16 16 15 15 15 15 15 14 14 14 14 14 14 14 14 13 13 13 13 13 13 13 13 11 10 8 7 6 6 7 8 9 9 8 8 8 8 7 6 5 4 3 2 2 4 5 6 7 9 10 12
10 11 11 12 12 13 13 13 14 13 12 13 14 14 15 16 17 17 17 17 16 15 15 14 13 13 14 16 17 17 17 18 17 17 17 18 17 17 17 17 16 15 15 15 16 17 17 16 16 15 14 14 15 16 16 16 15 14 12 10 8 7 7 8 9 10 11 11 11 10 9 7 5 4 2 2 3 4 5 6 7 8 10 12 13
12 13 13 13 14 14 14 15 15 14 13 13 14 14 15 15 16 18 19 19 18 18 17 17 15 14 13 13 14 15 16 17 17 18 19 19 20 19 19 18 17 16 16 16 17 17 17 17 16 16 15 16 17 17 17 17 16 14 12 10 8 8 8 8 9 11 13 13 12 9 7 5 3 3 3 4 5 5 6 7 8 10 12 13 14
14 15 15 15 15 16 16 17 17 16 15 16 16 15 14 14 15 16 18 19 20 20 20 20 19 18 17 16 17 18 19 20 20 20 20 21 21 20 19 19 18 17 18 17 17 17 16 15 16 16 17 17 17 16 16 17 17 14 11 9 8 8 9 9 11 13 13 13 11 8 5 4 3 3 4 5 5 6 7 8 10 11 12 12 13
15 15 16 16 17 17 17 18 19 18 18 18 19 18 16 15 14 15 16 17 19 20 21 22 22 21 20 19 20 21 22 22 22 21 21 21 20 18 18 18 17 17 18 18 18 17 17 17 17 17 17 17 17 15 15 17 18 15 13 11 10 9 9 11 13 13 12 10 8 6 5 4 3 3 3 4 5 6 8 10 11 12 11 12 14
Wind_Direction
140 143 172 204 212 209 204 192 188 189 188 184 184 196 198 191 193 192 191 190 183 178 177 175 169 164 160 154 148 142 144 144 143 145 144 140 134 128 127 127 126 119 114 113 112 112 100 86 80 91 151 228 248 253 259 256 231 272 298 261 234 246 242 226 212 198 178 161 163 190 163 162 175 177 171 159 157 168 178 191 204 220 239 246 249
142 149 173 203 218 220 209 197 193 193 194 191 187 190 188 186 193 190 187 189 183 178 177 173 169 166 162 161 160 154 152 153 151 152 151 145 141 137 135 138 138 127 126 133 129 126 118 117 121 132 167 219 254 270 266 189 193 239 275 249 235 247 242 226 220 221 207 190 181 254 337 136 169 186 199 202 189 186 187 191 194 196 213 231 247
162 165 176 199 214 215 208 204 202 201 202 197 187 185 183 187 195 190 186 186 180 178 176 171 170 171 170 169 168 165 159 159 159 156 154 155 153 153 154 158 157 141 133 142 142 133 124 135 144 145 157 207 262 293 283 206 192 219 234 232 251 261 243 239 227 230 249 186 153 141 302 2 11 237 210 214 216 218 218 219 219 217 225 235 249
178 178 184 200 206 204 203 207 209 208 206 199 189 188 188 188 191 189 186 182 175 175 178 176 174 176 177 176 175 171 164 163 163 157 159 162 157 158 163 161 161 157 146 146 147 133 128 143 140 132 120 103 24 322 301 249 199 211 226 236 259 246 223 261 245 220 246 199 138 82 38 62 325 272 155 196 211 224 230 231 230 230 235 243 254
189 188 194 202 204 201 200 205 210 209 205 199 191 193 195 189 186 187 183 176 173 179 186 185 180 175 169 163 163 160 156 160 162 157 160 161 153 148 147 144 143 141 136 136 138 122 124 141 133 125 118 95 65 38 18 4 235 209 194 223 258 244 217 246 263 223 177 190 180 138 108 24 255 181 117 131 183 209 218 217 221 226 235 240 244
199 199 198 206 209 204 202 205 209 209 206 199 192 196 201 194 185 183 179 173 176 186 189 187 181 173 163 155 153 151 150 158 164 161 162 160 149 141 137 135 130 126 126 127 128 118 121 136 134 124 110 90 76 55 48 50 41 74 128 162 227 242 225 223 225 223 125 138 148 147 148 184 177 147 120 209 174 179 188 189 203 220 235 238 206
201 203 201 207 208 204 205 208 210 209 203 197 194 196 200 195 187 182 178 176 180 185 186 185 178 170 168 166 164 162 159 162 168 166 162 155 144 138 134 132 129 127 127 124 124 121 115 129 148 146 129 116 100 76 69 68 64 74 98 112 102 94 234 207 181 187 142 99 99 112 115 134 145 143 160 179 139 121 111 97 80 64 51 54 85
193 198 203 206 206 204 203 206 209 208 200 197 197 197 197 194 188 184 181 180 182 184 187 187 181 175 175 174 172 172 170 165 166 164 158 152 144 138 133 127 124 125 126 125 122 116 110 125 153 167 169 164 130 98 87 77 83 95 93 93 93 87 98 171 175 192 208 195 151 92 97 130 139 147 168 168 143 136 96 75 81 82 75 67 60
194 200 201 203 208 204 198 198 204 206 204 201 197 196 197 193 188 184 183 183 183 185 189 190 190 188 183 177 171 170 170 165 162 160 157 155 149 142 138 132 126 126 129 128 120 111 111 133 155 168 172 159 117 104 102 90 91 101 95 86 86 87 87 110 147 167 195 196 168 122 107 112 101 93 99 80 70 90 106 57 77 79 66 61 72
198 204 205 204 207 203 194 190 195 204 206 199 191 193 194 189 186 182 180 182 183 187 193 194 195 195 188 180 173 168 168 166 163 162 161 160 156 150 148 146 140 140 137 129 118 108 107 127 151 160 151 128 118 116 117 112 101 100 95 87 80 75 74 81 104 117 121 122 120 113 104 95 79 63 53 57 66 75 90 69 56 70 66 65 76
199 205 206 203 201 195 189 186 191 199 200 196 192 192 190 188 186 180 180 184 187 192 197 196 196 196 191 185 181 177 175 174 171 168 168 168 163 155 152 148 144 144 140 128 117 107 101 109 117 114 105 102 111 118 124 125 121 118 109 96 84 71 72 81 91 100 103 102 99 95 89 81 78 70 56 64 81 90 102 88 67 82 87 81 79
197 201 197 185 175 175 182 179 168 173 197 210 203 184 181 190 187 183 186 191 192 194 197 196 195 196 195 195 193 191 188 186 183 179 177 177 170 160 153 146 141 141 139 130 118 107 98 101 100 95 91 88 95 107 122 127 125 125 117 105 99 95 95 95 94 97 98 98 94 89 86 79 75 72 64 66 79 103 118 109 90 96 94 91 86
195 191 155 115 91 101 157 129 100 131 204 226 218 151 111 155 194 200 197 195 194 193 195 197 199 201 203 204 202 199 198 196 193 188 185 185 179 168 158 152 148 145 142 136 123 110 99 96 94 91 87 84 85 91 102 117 122 118 113 111 108 104 103 99 97 97 93 93 95 91 85 79 73 70 69 71 76 94 110 106 97 108 112 102 86
97 70 67 64 64 59 70 93 113 173 212 229 223 143 125 189 207 209 193 189 194 196 200 204 207 210 212 211 207 204 204 203 200 194 189 189 186 175 165 160 156 151 147 142 132 121 108 101 99 96 92 88 85 87 95 110 122 120 114 113 110 106 101 96 95 96 94 94 94 92 86 82 79 76 73 74 75 76 88 112 111 97 101 98 79
63 73 79 78 81 82 88 104 152 236 240 239 218 175 199 199 169 127 162 203 212 209 208 210 213 215 215 213 211 210 211 211 204 197 194 191 186 178 170 165 160 158 155 150 143 135 120 112 109 100 93 88 84 85 89 101 114 117 117 113 106 101 96 94 94 96 96 94 93 95 93 88 84 82 77 73 72 69 70 99 132 122 92 80 76
72 92 101 103 102 101 107 130 171 228 244 241 224 200 199 159 106 102 218 228 229 219 213 219 223 219 215 213 211 211 213 214 208 201 199 196 190 183 177 168 161 163 167 166 163 156 143 129 114 101 88 75 74 76 79 89 100 103 110 111 105 103 96 91 91 91 93 95 97 99 98 94 88 83 82 77 75 72 67 75 102 128 130 108 69
29 69 109 129 129 123 130 149 171 208 235 238 227 215 190 148 147 182 216 228 230 224 218 224 226 217 209 208 209 211 214 218 215 207 204 201 195 190 185 177 166 165 174 179 181 180 174 172 189 237 303 28 38 53 63 71 80 87 96 101 103 105 98 91 87 86 93 98 99 99 98 96 92 86 86 84 81 78 71 68 70 83 110 130 116
16 0 53 87 105 119 147 179 192 202 217 227 223 212 180 169 186 198 211 220 222 220 217 220 220 212 206 207 208 211 216 220 218 214 210 203 199 198 194 186 176 171 177 182 185 186 180 177 199 255 268 275 296 311 32 38 49 66 80 90 97 101 96 93 87 84 94 102 101 101 101 97 93 88 85 84 83 78 71 68 67 69 78 87 105
76 325 335 63 85 117 165 196 207 199 200 210 213 198 173 177 198 209 214 217 217 214 212 212 212 209 209 209 209 212 215 217 218 218 216 208 202 201 196 191 185 181 184 185 188 190 186 181 186 226 260 264 265 258 261 313 345 13 38 72 89 93 94 95 93 88 94 104 104 103 102 98 93 89 85 81 79 75 69 68 69 70 72 73 85
138 180 230 106 97 118 169 202 218 206 190 191 193 182 171 176 194 210 216 220 221 215 206 207 207 206 209 209 211 214 212 212 215 219 220 214 207 201 195 192 186 185 192 193 194 199 201 203 205 217 246 259 257 250 251 262 273 295 316 342 63 85 91 90 97 101 103 109 109 105 104 101 96 91 87 80 76 74 70 68 69 70 70 68 72
148 165 163 114 101 109 140 189 214 206 181 176 173 166 167 174 185 200 211 218 223 219 211 212 213 211 212 210 212 214 211 210 214 218 222 220 214 207 199 196 191 190 198 205 212 219 224 232 238 243 252 260 261 258 257 261 264 268 272 271 267 233 188 142 122 120 125 133 125 115 112 113 108 93 88 85 81 81 75 71 69 65 66 64 61
162 152 117 92 95 107 123 157 180 175 161 157 154 152 159 171 184 196 207 214 218 217 215 217 218 215 214 210 211 213 211 212 215 219 225 225 222 218 212 211 210 206 208 216 225 233 241 247 249 253 258 262 265 265 263 266 269 268 267 263 257 249 241 229 217 192 167 168 170 154 136 134 139 123 109 107 98 96 89 75 69 60 61 61 55
127 80 64 65 85 110 124 135 140 134 131 136 135 136 146 165 182 195 206 211 214 217 218 219 218 212 207 207 210 213 214 216 218 223 228 229 229 226 222 224 227 226 227 234 244 252 259 264 263 261 263 266 267 268 268 269 273 275 275 272 266 260 253 246 239 232 218 207 205 201 186 170 173 172 148 142 135 118 98 77 76 68 62 63 58
59 52 48 55 70 98 110 105 103 103 107 121 130 134 142 157 173 186 198 205 210 215 216 213 208 203 202 203 205 210 215 216 218 223 227 230 232 230 227 231 237 240 239 242 250 254 259 267 269 271 275 277 276 276 277 278 278 279 279 279 276 270 263 261 255 247 240 234 227 222 219 213 209 209 201 186 181 168 119 76 83 80 66 62 59
76 72 71 79 77 77 87 91 96 103 110 119 129 139 148 157 168 176 180 182 186 192 194 192 190 190 192 194 197 203 208 209 212 220 226 228 229 230 229 233 237 239 236 235 238 238 238 248 261 273 280 280 278 278 283 289 288 282 279 280 281 276 269 267 265 260 254 249 245 238 233 232 230 227 224 219 210 207 201 146 93 86 67 54 50
119 121 116 116 116 103 99 101 103 106 113 119 125 132 141 152 164 170 171 171 169 168 169 173 177 176 176 181 189 196 201 203 205 212 219 222 223 225 228 229 231 231 230 231 233 233 237 251 265 276 280 279 275 274 281 290 293 290 284 282 284 280 272 267 268 266 262 259 258 253 247 243 243 241 236 232 225 219 213 203 171 135 87 50 40
118 118 132 134 125 118 114 111 107 105 111 117 120 122 127 140 153 160 165 168 167 163 161 163 170 173 174 176 181 188 193 193 192 196 201 205 208 214 218 220 222 226 227 229 234 239 252 268 278 280 280 280 276 275 281 288 293 297 294 289 289 283 274 270 271 269 265 264 264 261 257 252 252 252 247 243 236 227 219 215 209 196 169 48 25
64 65 92 85 76 80 108 116 115 113 116 116 118 121 121 129 141 147 155 161 163 162 156 156 164 169 170 171 174 178 177 172 170 175 182 185 190 212 223 218 213 216 221 228 242 259 275 283 285 283 280 278 277 279 285 289 290 292 293 292 290 281 274 273 277 276 273 268 263 260 259 256 255 255 253 253 249 240 230 220 215 211 210 271 344
100 72 31 37 21 355 18 85 112 121 123 119 120 127 128 130 138 143 147 154 159 161 159 160 164 166 168 170 171 173 172 170 172 183 201 210 214 226 232 227 221 221 230 246 265 278 286 286 283 280 277 277 280 284 287 287 285 283 284 287 285 278 274 277 279 278 277 273 266 260 259 258 257 255 254 255 253 248 241 231 223 222 230 263 300
54 30 20 23 13 12 18 20 38 65 87 97 108 122 128 131 140 147 148 150 154 157 158 162 165 167 171 175 176 178 181 183 183 189 208 214 210 220 227 230 233 238 248 264 276 282 286 286 285 285 282 279 284 289 288 283 281 281 282 281 279 276 277 278 277 275 276 276 272 269 266 261 257 253 250 249 247 242 238 233 230 227 234 263 287
25 20 19 21 19 22 29 29 29 31 35 44 55 83 107 121 138 149 151 150 149 146 143 146 149 152 157 159 158 160 161 162 158 154 156 153 161 181 189 201 218 227 237 247 262 274 279 282 282 281 275 271 277 287 287 283 285 286 283 279 274 274 276 279 280 280 281 283 282 279 274 268 261 252 246 243 237 227 220 216 215 219 232 258 279
41 35 32 33 26 28 39 42 38 36 37 36 40 65 91 111 125 128 126 127 131 132 131 131 133 137 143 146 146 144 142 143 143 142 144 145 141 135 129 132 135 127 124 121 92 324 311 304 294 286 278 275 279 284 289 301 307 299 289 283 277 275 277 280 282 281 281 284 285 281 278 275 267 256 246 237 222 209 205 207 211 218 231 247 272
63 53 43 41 38 45 53 53 52 51 47 42 43 57 72 92 109 113 112 115 118 120 119 118 117 119 125 132 138 140 137 133 130 125 121 120 119 115 112 110 108 103 95 83 73 52 27 17 4 354 344 332 317 304 297 302 295 283 280 288 287 282 280 281 282 279 277 279 280 278 277 274 268 260 244 225 209 201 198 199 203 209 219 243 285
69 64 53 44 43 51 57 58 60 62 63 62 59 59 63 78 95 105 109 110 111 113 113 112 111 111 112 118 124 127 126 124 123 119 116 115 115 112 110 109 105 102 97 86 67 40 28 24 22 17 10 5 360 346 326 291 269 264 267 283 287 284 284 285 285 285 284 284 283 282 278 268 262 250 221 202 195 192 188 185 186 197 233 275 293
68 70 68 58 47 46 51 55 60 64 68 69 65 64 67 67 71 80 89 97 105 108 106 104 109 112 114 121 126 127 127 128 125 123 124 126 126 124 122 122 120 124 128 120 84 39 32 26 18 12 5 360 357 353 345 319 281 268 268 279 285 285 288 292 292 291 290 287 287 283 265 244 227 202 187 185 184 181 178 178 186 221 260 278 288
34 38 61 65 51 40 45 50 50 54 62 65 63 65 71 69 64 63 62 67 76 85 89 92 97 101 103 110 121 128 132 135 136 136 138 141 142 141 142 144 147 152 154 145 126 80 47 34 20 11 2 353 346 344 343 331 304 283 270 278 285 283 286 294 300 304 304 300 296 269 223 200 182 169 166 172 176 178 183 196 218 244 267 283 294
26 26 29 37 33 24 44 56 56 60 67 65 57 61 73 75 71 65 59 54 49 48 54 68 81 91 95 97 104 112 117 123 130 134 138 141 143 143 144 145 144 145 141 130 111 88 72 62 51 36 17 358 339 332 333 326 303 280 257 257 266 266 274 292 308 335 4 54 109 161 176 172 165 160 159 165 176 190 211 231 246 258 273 287 297
37 38 34 32 29 17 15 25 31 38 31 22 20 15 21 50 73 78 68 57 40 27 25 35 49 62 71 76 83 91 98 108 117 124 130 136 139 140 141 138 135 133 126 113 98 90 84 69 47 23 0 344 323 314 312 306 284 253 230 229 240 233 218 219 209 135 123 126 133 146 159 166 167 165 169 181 197 224 246 255 263 263 264 278 294
47 45 39 37 39 38 31 25 18 9 358 348 338 320 307 303 295 283 298 299 289 1 8 10 10 4 358 355 8 45 73 91 102 112 121 132 137 137 134 128 124 116 104 96 91 83 66 31 359 338 327 314 292 286 287 284 263 225 214 213 207 193 181 182 182 170 159 152 149 150 155 167 177 180 189 209 228 248 261 266 268 269 275 288 300
46 45 39 36 37 38 39 36 28 17 4 353 342 326 311 301 295 290 285 279 267 249 241 244 254 265 271 272 273 269 258 245 199 130 128 136 139 133 125 119 111 98 87 78 63 28 354 336 329 323 312 295 275 258 253 258 246 215 210 207 197 185 180 190 195 190 181 174 168 163 161 167 180 187 197 214 231 251 269 276 281 294 306 312 317
38 36 32 30 30 30 29 27 22 14 4 357 348 331 309 297 295 292 284 276 272 267 257 252 251 249 243 242 240 234 232 228 218 198 170 162 158 147 138 125 104 84 66 41 10 342 327 324 324 317 306 298 293 273 217 210 213 211 215 213 206 201 201 203 199 193 191 187 183 181 183 189 200 205 209 226 260 291 302 308 316 325 331 331 327
24 22 19 15 14 15 13 9 8 5 358 355 350 339 327 315 306 301 295 285 280 277 269 255 246 240 235 229 223 220 222 219 215 213 207 198 191 186 185 181 160 116 15 351 329 313 305 305 303 295 289 286 282 266 222 193 192 199 205 210 211 212 217 221 211 201 195 189 183 185 191 196 204 216 228 257 296 315 320 328 337 343 339 330 323
8 7 7 3 357 353 349 346 348 350 348 347 344 340 336 329 318 310 305 297 288 281 271 253 241 238 232 226 222 222 222 222 222 221 219 217 210 208 212 216 217 225 250 274 276 268 263 266 268 264 261 258 252 241 222 200 186 188 191 194 203 214 225 236 237 223 207 196 189 188 187 185 192 208 221 228 249 294 321 342 351 340 327 318 315
356 354 354 353 345 338 334 332 333 336 337 336 335 332 329 328 323 316 306 295 286 278 267 254 246 241 232 224 222 221 220 223 224 221 220 219 217 217 221 223 225 230 241 248 247 240 238 242 246 244 242 239 234 227 218 208 201 202 203 201 206 215 221 228 232 224 208 198 193 188 182 179 181 176 171 170 158 121 49 26 347 321 315 316 318
342 345 345 342 335 330 327 323 322 324 323 321 324 323 318 317 322 323 315 303 290 279 268 258 251 245 238 230 224 220 220 222 222 221 222 221 219 221 223 224 227 235 244 244 237 231 232 233 234 236 234 230 227 223 218 213 211 212 212 212 217 223 223 224 220 208 198 192 189 183 172 158 144 136 135 132 120 110 98 14 326 319 321 324 327
339 344 342 337 330 322 318 315 314 315 313 309 309 308 305 305 308 314 319 316 306 293 278 264 254 249 242 233 224 221 221 223 223 225 228 230 230 230 230 230 233 238 240 238 234 232 233 233 236 236 229 221 219 218 216 215 212 209 206 208 216 219 215 208 198 191 190 187 180 171 157 142 133 128 122 115 106 89 13 332 330 332 334 335 335
339 342 338 333 327 318 311 306 303 304 304 301 297 295 295 297 298 299 305 310 310 305 293 275 258 248 237 228 224 223 223 223 224 224 226 229 231 233 234 234 234 234 234 233 233 235 235 237 239 235 225 218 216 214 214 213 211 206 202 202 207 204 194 188 182 180 181 175 162 151 143 135 128 122 112 91 56 4 345 343 346 346 344 341 339
332 333 331 327 324 319 314 308 303 302 300 292 287 287 289 291 293 294 297 299 298 297 295 288 275 259 243 231 227 227 225 223 222 222 223 225 228 231 234 236 237 239 241 241 241 242 243 244 244 237 227 219 216 216 217 217 214 210 204 200 200 198 193 188 181 172 164 157 152 144 136 128 119 110 85 39 18 7 0 358 355 349 347 345 346
326 325 324 322 319 316 313 309 305 305 304 296 288 284 283 285 288 292 295 295 291 287 286 285 281 275 264 249 240 235 232 230 229 227 227 229 231 233 236 239 241 245 248 250 251 251 252 252 249 244 236 226 223 227 229 223 216 213 210 208 206 202 194 182 174 167 157 150 146 140 131 123 112 84 55 37 27 18 9 2 355 350 350 353 357
320 319 317 314 311 308 306 302 299 298 298 296 293 289 284 283 286 292 296 296 291 286 282 278 275 273 268 262 257 252 246 242 239 236 233 233 233 234 236 238 241 243 245 248 249 250 252 253 250 251 251 244 243 248 241 222 211 207 206 205 202 197 186 170 162 161 156 150 145 138 128 120 102 70 52 41 29 17 8 0 354 353 355 358 3
314 313 311 309 307 305 301 297 295 294 291 289 289 288 286 287 291 296 302 302 298 291 282 274 270 269 267 267 267 264 258 251 245 241 238 235 233 235 238 240 243 244 244 245 245 246 249 250 251 255 256 249 248 251 239 218 207 200 195 193 189 180 171 164 161 160 156 152 149 142 134 126 104 74 53 39 25 14 4 357 352 354 359 3 6